Regional Weather Roundup
Issued by NWS New Orleans/Baton Rouge, LA

Home | Current Version | Previous Version | Text Only | Print | Product List | Glossary Off
Versions: 1 2 3 4 5 6 7 8 9 10 11 12 13 14 15 16 17 18 19 20 21 22 23 24 25 26 27 28 29 30 31 32 33 34 35 36 37 38 39 40 41 42 43 44 45 46 47 48 49 50

112
ASUS44 KLIX 311810
RWRLIX
NEW ORLEANS REGIONAL WEATHER ROUNDUP
NATIONAL WEATHER SERVICE NEW ORLEANS LA
1200 PM CST SAT JAN 31 2015

NOTE: "FAIR" INDICATES FEW OR NO CLOUDS BELOW 12,000 FEET WITH NO
      SIGNIFICANT WEATHER AND/OR OBSTRUCTIONS TO VISIBILITY.
      SKY/WX - SKY CONDITION AND SIGNIFICANT WEATHER.
      TMP - AIR TEMPERATURE.     DP    - DEWPOINT TEMPERATURE.
      RH  - RELATIVE HUMIDITY.   PRES  - PRESSURE.
      HI  - HEAT INDEX.          WCI   - WIND CHILL INDEX.

*  THESE STATIONS ARE NOT NWS OR FAA STATIONS AND ARE NOT UNDER
   NWS QUALITY CONTROL.

LAZ038-040-048-061>063-065>067-069-311900-
SOUTHEAST LOUISIANA

CITY           SKY/WX    TMP DP  RH WIND       PRES   REMARKS
N.O. AUDUBON     N/A     61  48  61 MISG        N/A
6HR MIN TEMP:  41; 6HR MAX TEMP:  64;

N.O. INTL ARPT PTSUNNY   60  44  55 E9        30.27F
6HR MIN TEMP:  45; 6HR MAX TEMP:  60;

N.O. LAKEFRONT SUNNY     59  44  57 E10       30.28F
6HR MIN TEMP:  48; 6HR MAX TEMP:  59;

N.O. DOWNTOWN* NOT AVBL
SLIDELL        SUNNY     60  42  51 SE8       30.28F
6HR MIN TEMP:  31; 6HR MAX TEMP:  60;

BATON ROUGE    PTSUNNY   60  38  43 SE8       30.27F
6HR MIN TEMP:  36; 6HR MAX TEMP:  60;

BOOTHVILLE     SUNNY     65  51  60 E14       30.26F
6HR MIN TEMP:  51; 6HR MAX TEMP:  65;

BELLE CHASSE   PTSUNNY   63  46  54 E13       30.26F
6HR MIN TEMP:  41; 6HR MAX TEMP:  63;

BOGALUSA*        N/A     56  25  30 E5        30.31F
6HR MIN TEMP:  31; 6HR MAX TEMP:  57;

GALLIANO*      MOCLDY    65  50  59 MISG      30.26F
6HR MIN TEMP:  51; 6HR MAX TEMP:  65;

NEW ROADS*       N/A     57  33  40 E7        30.27F
6HR MIN TEMP:  39; 6HR MAX TEMP:  57;

GONZALES*        N/A     60  44  57 E8        30.27F
6HR MIN TEMP:  37; 6HR MAX TEMP:  60;

HAMMOND*       MOSUNNY   61  37  41 E6        30.30F
HOUMA*         SUNNY     61  48  63 NE14      30.27F
PORT FOURCHON* CLEAR     64  54  68 E16       30.27F

$$

MSZ070-080>082-311900-
SOUTHERN MISSISSIPPI

CITY           SKY/WX    TMP DP  RH WIND       PRES   REMARKS
MCCOMB         MOSUNNY   56  27  32 SE7       30.29F
6HR MIN TEMP:  34; 6HR MAX TEMP:  56;

GULFPORT       SUNNY     57  41  55 E10       30.30F
6HR MIN TEMP:  38; 6HR MAX TEMP:  58;

BILOXI         SUNNY     60  41  51 SE12      30.31F
6HR MIN TEMP:  35; 6HR MAX TEMP:  60;

PASCAGOULA     SUNNY     58  40  51 VRB7      30.32F
6HR MIN TEMP:  29; 6HR MAX TEMP:  59;

STENNIS ARPT*  SUNNY     59  39  47 SE13      30.30F

$$

COASTAL OBSERVATIONS
LAKE AND NEARSHORE STATIONS

STATION/POSITION TIME  TEMP    WIND        PRES    WAVE
                       AIR SEA DIR/SP/G            HT/PER
                 (UTC) (F)     (DEG/KT/KT) (MB)    (FT/S)
PASCAGOULA       1800   56      80/ 10/ 14 1026.2
WAVELAND YACHT   1800   54     110/  9/ 14 1025.2
GRAND ISLE       1800   62 60   80/ 11/ 15 1024.7
SOUTHWEST PASS   1800   67 46  100/ 16/ 18 1024.4
NEW CANAL        1800   57 55   80/ 11/ 14 1025.5
SHELL BEACH      1800   56 56   70/ 15/ 17 1025.0

OFFSHORE STATIONS

STATION/POSITION TIME  TEMP    WIND        PRES    WAVE
                       AIR SEA DIR/SP/G            HT/PER
                 (UTC) (F)     (DEG/KT/KT) (MB)    (FT/S)
64 S DAUPHIN ISL 1654   61 69  110/ 14/ 17 1025.8    4/ 6

$$




USA.gov is the U.S. government's official web portal to all federal, state and local government web resources and services.